Location: Unspecified
(0.0000°N, 0.0000°E)
Time: 01:20:22
(UTC+00:00)

Vanguard 1 Rocket - Pass Details

Date: 13 December 2017
Orbit: 652 x 4225 km, 34.3° (Epoch: 18 July)

Event Time Altitude Azimuth Distance (km) Brightness Sun altitude
Rises 22:44:45 0° 317° (NW) 7,296 11.9 -61.3°
Enters shadow 22:49:31 10° 323° (NW) 6,641 11.6 -61.9°
Reaches altitude 10° 22:49:32 10° 323° (NW) 6,639 - -61.9°
Maximum altitude 23:13:08 52° 35° (NE) 4,823 - -64.7°
Exits shadow 23:31:24 20° 100° (E) 5,948 11.4 -66.1°
Drops below altitude 10° 23:35:46 10° 106° (ESE) 6,509 11.7 -66.3°
Sets 23:40:14 0° 111° (ESE) 7,164 12.0 -66.5°
